Year,Month,Day,Hour,Minute,Value (Times are PST for temperature in C)
2006,09,16,00,00,8.80
2006,09,16,00,01,8.70
2006,09,16,00,02,8.70
2006,09,16,00,03,8.70
2006,09,16,00,04,8.70
2006,09,16,00,05,8.70
2006,09,16,00,06,8.70
2006,09,16,00,07,8.70
2006,09,16,00,08,8.70
2006,09,16,00,09,8.70
2006,09,16,00,10,8.70
2006,09,16,00,11,8.70
2006,09,16,00,12,8.70
2006,09,16,00,13,8.70
2006,09,16,00,14,8.70
2006,09,16,00,15,8.70
2006,09,16,00,16,8.70
2006,09,16,00,17,8.70
2006,09,16,00,18,8.70
2006,09,16,00,19,8.70
2006,09,16,00,20,8.70
2006,09,16,00,21,8.70
2006,09,16,00,22,8.70
2006,09,16,00,23,8.70
2006,09,16,00,24,8.70
2006,09,16,00,25,8.60
2006,09,16,00,26,8.60
2006,09,16,00,27,8.60
2006,09,16,00,28,8.50
2006,09,16,00,29,8.50
2006,09,16,00,30,8.50
2006,09,16,00,31,8.50
2006,09,16,00,32,8.40
2006,09,16,00,33,8.40
2006,09,16,00,34,8.40
2006,09,16,00,35,8.40
2006,09,16,00,36,8.40
2006,09,16,00,37,8.30
2006,09,16,00,38,8.30
2006,09,16,00,39,8.30
2006,09,16,00,40,8.30
2006,09,16,00,41,8.30
2006,09,16,00,42,8.30
2006,09,16,00,43,8.30
2006,09,16,00,44,8.20
2006,09,16,00,45,8.20
2006,09,16,00,46,8.20
2006,09,16,00,47,8.20
2006,09,16,00,48,8.20
2006,09,16,00,49,8.20
2006,09,16,00,50,8.10
2006,09,16,00,51,8.10
2006,09,16,00,52,8.10
2006,09,16,00,53,8.10
2006,09,16,00,54,8.00
2006,09,16,00,55,8.00
2006,09,16,00,56,8.00
2006,09,16,00,57,7.90
2006,09,16,00,58,7.90
2006,09,16,00,59,7.90
2006,09,16,01,00,7.90
2006,09,16,01,01,7.90
2006,09,16,01,02,7.90
2006,09,16,01,03,7.80
2006,09,16,01,04,7.80
2006,09,16,01,05,7.80
2006,09,16,01,06,7.80
2006,09,16,01,07,7.80
2006,09,16,01,08,7.80
2006,09,16,01,09,7.70
2006,09,16,01,10,7.70
2006,09,16,01,11,7.70
2006,09,16,01,12,7.70
2006,09,16,01,13,7.70
2006,09,16,01,14,7.70
2006,09,16,01,15,7.60
2006,09,16,01,16,7.60
2006,09,16,01,17,7.60
2006,09,16,01,18,7.60
2006,09,16,01,19,7.60
2006,09,16,01,20,7.60
2006,09,16,01,21,7.60
2006,09,16,01,22,7.60
2006,09,16,01,23,7.60
2006,09,16,01,24,7.60
2006,09,16,01,25,7.60
2006,09,16,01,26,7.60
2006,09,16,01,27,7.60
2006,09,16,01,28,7.60
2006,09,16,01,29,7.50
2006,09,16,01,30,7.50
2006,09,16,01,31,7.50
2006,09,16,01,32,7.50
2006,09,16,01,33,7.50
2006,09,16,01,34,7.50
2006,09,16,01,35,7.50
2006,09,16,01,36,7.50
2006,09,16,01,37,7.40
2006,09,16,01,38,7.40
2006,09,16,01,39,7.40
2006,09,16,01,40,7.40
2006,09,16,01,41,7.40
2006,09,16,01,42,7.40
2006,09,16,01,43,7.40
2006,09,16,01,44,7.40
2006,09,16,01,45,7.40
2006,09,16,01,46,7.30
2006,09,16,01,47,7.30
2006,09,16,01,48,7.30
2006,09,16,01,49,7.30
2006,09,16,01,50,7.30
2006,09,16,01,51,7.30
2006,09,16,01,52,7.30
2006,09,16,01,53,7.30
2006,09,16,01,54,7.30
2006,09,16,01,55,7.30
2006,09,16,01,56,7.30
2006,09,16,01,57,7.30
2006,09,16,01,58,7.20
2006,09,16,01,59,7.20
2006,09,16,02,00,7.30
2006,09,16,02,01,7.30
2006,09,16,02,02,7.30
2006,09,16,02,03,7.30
2006,09,16,02,04,7.30
2006,09,16,02,05,7.40
2006,09,16,02,06,7.40
2006,09,16,02,07,7.50
2006,09,16,02,08,7.50
2006,09,16,02,09,7.50
2006,09,16,02,10,7.50
2006,09,16,02,11,7.60
2006,09,16,02,12,7.60
2006,09,16,02,13,7.60
2006,09,16,02,14,7.70
2006,09,16,02,15,7.70
2006,09,16,02,16,7.80
2006,09,16,02,17,7.80
2006,09,16,02,18,7.80
2006,09,16,02,19,7.80
2006,09,16,02,20,7.80
2006,09,16,02,21,7.80
2006,09,16,02,22,7.80
2006,09,16,02,23,7.80
2006,09,16,02,24,7.80
2006,09,16,02,25,7.80
2006,09,16,02,26,7.80
2006,09,16,02,27,7.80
2006,09,16,02,28,7.80
2006,09,16,02,29,7.80
2006,09,16,02,30,7.80
2006,09,16,02,31,7.70
2006,09,16,02,32,7.70
2006,09,16,02,33,7.70
2006,09,16,02,34,7.70
2006,09,16,02,35,7.60
2006,09,16,02,36,7.60
2006,09,16,02,37,7.60
2006,09,16,02,38,7.60
2006,09,16,02,39,7.60
2006,09,16,02,40,7.60
2006,09,16,02,41,7.60
2006,09,16,02,42,7.50
2006,09,16,02,43,7.50
2006,09,16,02,44,7.50
2006,09,16,02,45,7.50
2006,09,16,02,46,7.40
2006,09,16,02,47,7.40
2006,09,16,02,48,7.40
2006,09,16,02,49,7.40
2006,09,16,02,50,7.40
2006,09,16,02,51,7.30
2006,09,16,02,52,7.30
2006,09,16,02,53,7.30
2006,09,16,02,54,7.30
2006,09,16,02,55,7.30
2006,09,16,02,56,7.30
2006,09,16,02,57,7.20
2006,09,16,02,58,7.20
2006,09,16,02,59,7.10
2006,09,16,03,00,7.10
2006,09,16,03,01,7.00
2006,09,16,03,02,7.00
2006,09,16,03,03,7.00
2006,09,16,03,04,6.90
2006,09,16,03,05,6.90
2006,09,16,03,06,6.90
2006,09,16,03,07,6.80
2006,09,16,03,08,6.80
2006,09,16,03,09,6.80
2006,09,16,03,10,6.80
2006,09,16,03,11,6.80
2006,09,16,03,12,6.80
2006,09,16,03,13,6.80
2006,09,16,03,14,6.80
2006,09,16,03,15,6.80
2006,09,16,03,16,6.80
2006,09,16,03,17,6.80
2006,09,16,03,18,6.80
2006,09,16,03,19,6.80
2006,09,16,03,20,6.80
2006,09,16,03,21,6.80
2006,09,16,03,22,6.80
2006,09,16,03,23,6.80
2006,09,16,03,24,6.80
2006,09,16,03,25,6.80
2006,09,16,03,26,6.80
2006,09,16,03,27,6.80
2006,09,16,03,28,6.80
2006,09,16,03,29,6.80
2006,09,16,03,30,6.80
2006,09,16,03,31,6.80
2006,09,16,03,32,6.80
2006,09,16,03,33,6.80
2006,09,16,03,34,6.90
2006,09,16,03,35,6.90
2006,09,16,03,36,6.90
2006,09,16,03,37,6.90
2006,09,16,03,38,6.90
2006,09,16,03,39,6.90
2006,09,16,03,40,7.00
2006,09,16,03,41,7.00
2006,09,16,03,42,7.00
2006,09,16,03,43,7.00
2006,09,16,03,44,7.00
2006,09,16,03,45,7.00
2006,09,16,03,46,7.00
2006,09,16,03,47,7.00
2006,09,16,03,48,7.00
2006,09,16,03,49,7.00
2006,09,16,03,50,6.90
2006,09,16,03,51,6.90
2006,09,16,03,52,6.90
2006,09,16,03,53,6.90
2006,09,16,03,54,6.90
2006,09,16,03,55,6.90
2006,09,16,03,56,6.90
2006,09,16,03,57,7.00
2006,09,16,03,58,7.00
2006,09,16,03,59,7.00
2006,09,16,04,00,7.00
2006,09,16,04,01,7.00
2006,09,16,04,02,7.00
2006,09,16,04,03,7.00
2006,09,16,04,04,7.00
2006,09,16,04,05,7.00
2006,09,16,04,06,7.00
2006,09,16,04,07,7.00
2006,09,16,04,08,7.00
2006,09,16,04,09,7.00
2006,09,16,04,10,7.00
2006,09,16,04,11,7.00
2006,09,16,04,12,7.00
2006,09,16,04,13,7.00
2006,09,16,04,14,7.10
2006,09,16,04,15,7.10
2006,09,16,04,16,7.10
2006,09,16,04,17,7.20
2006,09,16,04,18,7.20
2006,09,16,04,19,7.30
2006,09,16,04,20,7.30
2006,09,16,04,21,7.30
2006,09,16,04,22,7.30
2006,09,16,04,23,7.30
2006,09,16,04,24,7.30
2006,09,16,04,25,7.30
2006,09,16,04,26,7.30
2006,09,16,04,27,7.30
2006,09,16,04,28,7.30
2006,09,16,04,29,7.30
2006,09,16,04,30,7.30
2006,09,16,04,31,7.30
2006,09,16,04,32,7.30
2006,09,16,04,33,7.30
2006,09,16,04,34,7.40
2006,09,16,04,35,7.50
2006,09,16,04,36,7.50
2006,09,16,04,37,7.60
2006,09,16,04,38,7.60
2006,09,16,04,39,7.70
2006,09,16,04,40,7.70
2006,09,16,04,41,7.70
2006,09,16,04,42,7.80
2006,09,16,04,43,7.80
2006,09,16,04,44,7.80
2006,09,16,04,45,7.80
2006,09,16,04,46,7.80
2006,09,16,04,47,7.80
2006,09,16,04,48,7.80
2006,09,16,04,49,7.80
2006,09,16,04,50,7.90
2006,09,16,04,51,7.90
2006,09,16,04,52,7.90
2006,09,16,04,53,7.90
2006,09,16,04,54,8.00
2006,09,16,04,55,8.00
2006,09,16,04,56,8.00
2006,09,16,04,57,8.00
2006,09,16,04,58,8.00
2006,09,16,04,59,8.00
2006,09,16,05,00,8.00
2006,09,16,05,01,8.00
2006,09,16,05,02,8.10
2006,09,16,05,03,8.10
2006,09,16,05,04,8.10
2006,09,16,05,05,8.10
2006,09,16,05,06,8.10
2006,09,16,05,07,8.10
2006,09,16,05,08,8.10
2006,09,16,05,09,8.00
2006,09,16,05,10,8.00
2006,09,16,05,11,8.00
2006,09,16,05,12,8.00
2006,09,16,05,13,8.00
2006,09,16,05,14,8.00
2006,09,16,05,15,7.90
2006,09,16,05,16,7.90
2006,09,16,05,17,7.90
2006,09,16,05,18,7.90
2006,09,16,05,19,7.80
2006,09,16,05,20,7.80
2006,09,16,05,21,7.80
2006,09,16,05,22,7.80
2006,09,16,05,23,7.80
2006,09,16,05,24,7.80
2006,09,16,05,25,7.70
2006,09,16,05,26,7.70
2006,09,16,05,27,7.70
2006,09,16,05,28,7.60
2006,09,16,05,29,7.60
2006,09,16,05,30,7.60
2006,09,16,05,31,7.50
2006,09,16,05,32,7.50
2006,09,16,05,33,7.50
2006,09,16,05,34,7.40
2006,09,16,05,35,7.40
2006,09,16,05,36,7.30
2006,09,16,05,37,7.30
2006,09,16,05,38,7.30
2006,09,16,05,39,7.30
2006,09,16,05,40,7.30
2006,09,16,05,41,7.20
2006,09,16,05,42,7.20
2006,09,16,05,43,7.20
2006,09,16,05,44,7.10
2006,09,16,05,45,7.10
2006,09,16,05,46,7.00
2006,09,16,05,47,7.00
2006,09,16,05,48,7.00
2006,09,16,05,49,6.90
2006,09,16,05,50,6.90
2006,09,16,05,51,6.80
2006,09,16,05,52,6.80
2006,09,16,05,53,6.80
2006,09,16,05,54,6.80
2006,09,16,05,55,6.80
2006,09,16,05,56,6.70
2006,09,16,05,57,6.70
2006,09,16,05,58,6.70
2006,09,16,05,59,6.70
2006,09,16,06,00,6.70
2006,09,16,06,01,6.70
2006,09,16,06,02,6.60
2006,09,16,06,03,6.60
2006,09,16,06,04,6.60
2006,09,16,06,05,6.60
2006,09,16,06,06,6.60
2006,09,16,06,07,6.60
2006,09,16,06,08,6.50
2006,09,16,06,09,6.40
2006,09,16,06,10,6.40
2006,09,16,06,11,6.40
2006,09,16,06,12,6.50
2006,09,16,06,13,6.60
2006,09,16,06,14,6.60
2006,09,16,06,15,6.60
2006,09,16,06,16,6.60
2006,09,16,06,17,6.60
2006,09,16,06,18,6.60
2006,09,16,06,19,6.60
2006,09,16,06,20,6.60
2006,09,16,06,21,6.60
2006,09,16,06,22,6.60
2006,09,16,06,23,6.60
2006,09,16,06,24,6.60
2006,09,16,06,25,6.60
2006,09,16,06,26,6.60
2006,09,16,06,27,6.60
2006,09,16,06,28,6.60
2006,09,16,06,29,6.60
2006,09,16,06,30,6.60
2006,09,16,06,31,6.60
2006,09,16,06,32,6.60
2006,09,16,06,33,6.60
2006,09,16,06,34,6.60
2006,09,16,06,35,6.60
2006,09,16,06,36,6.60
2006,09,16,06,37,6.70
2006,09,16,06,38,6.70
2006,09,16,06,39,6.70
2006,09,16,06,40,6.70
2006,09,16,06,41,6.70
2006,09,16,06,42,6.70
2006,09,16,06,43,6.70
2006,09,16,06,44,6.70
2006,09,16,06,45,6.60
2006,09,16,06,46,6.60
2006,09,16,06,47,6.60
2006,09,16,06,48,6.60
2006,09,16,06,49,6.60
2006,09,16,06,50,6.60
2006,09,16,06,51,6.60
2006,09,16,06,52,6.60
2006,09,16,06,53,6.60
2006,09,16,06,54,6.60
2006,09,16,06,55,6.60
2006,09,16,06,56,6.60
2006,09,16,06,57,6.50
2006,09,16,06,58,6.40
2006,09,16,06,59,6.40
2006,09,16,07,00,6.40
2006,09,16,07,01,6.40
2006,09,16,07,02,6.40
2006,09,16,07,03,6.40
2006,09,16,07,04,6.40
2006,09,16,07,05,6.40
2006,09,16,07,06,6.40
2006,09,16,07,07,6.30
2006,09,16,07,08,6.30
2006,09,16,07,09,6.30
2006,09,16,07,10,6.20
2006,09,16,07,11,6.20
2006,09,16,07,12,6.20
2006,09,16,07,13,6.20
2006,09,16,07,14,6.20
2006,09,16,07,15,6.20
2006,09,16,07,16,6.20
2006,09,16,07,17,6.20
2006,09,16,07,18,6.20
2006,09,16,07,19,6.20
2006,09,16,07,20,6.20
2006,09,16,07,21,6.20
2006,09,16,07,22,6.10
2006,09,16,07,23,6.10
2006,09,16,07,24,6.10
2006,09,16,07,25,6.10
2006,09,16,07,26,6.00
2006,09,16,07,27,6.00
2006,09,16,07,28,6.00
2006,09,16,07,29,6.00
2006,09,16,07,30,5.90
2006,09,16,07,31,5.90
2006,09,16,07,32,5.90
2006,09,16,07,33,5.90
2006,09,16,07,34,5.90
2006,09,16,07,35,5.90
2006,09,16,07,36,5.90
2006,09,16,07,37,5.90
2006,09,16,07,38,5.90
2006,09,16,07,39,5.90
2006,09,16,07,40,5.90
2006,09,16,07,41,5.90
2006,09,16,07,42,5.90
2006,09,16,07,43,6.00
2006,09,16,07,44,6.00
2006,09,16,07,45,6.20
2006,09,16,07,46,6.20
2006,09,16,07,47,6.30
2006,09,16,07,48,6.30
2006,09,16,07,49,6.40
2006,09,16,07,50,6.40
2006,09,16,07,51,6.40
2006,09,16,07,52,6.50
2006,09,16,07,53,6.60
2006,09,16,07,54,6.70
2006,09,16,07,55,6.70
2006,09,16,07,56,6.70
2006,09,16,07,57,6.80
2006,09,16,07,58,6.80
2006,09,16,07,59,6.90
2006,09,16,08,00,7.00
2006,09,16,08,01,7.00
2006,09,16,08,02,7.10
2006,09,16,08,03,7.30
2006,09,16,08,04,7.30
2006,09,16,08,05,7.50
2006,09,16,08,06,7.60
2006,09,16,08,07,7.70
2006,09,16,08,08,7.80
2006,09,16,08,09,7.90
2006,09,16,08,10,8.00
2006,09,16,08,11,8.10
2006,09,16,08,12,8.10
2006,09,16,08,13,8.20
2006,09,16,08,14,8.20
2006,09,16,08,15,8.20
2006,09,16,08,16,8.20
2006,09,16,08,17,8.20
2006,09,16,08,18,8.20
2006,09,16,08,19,8.20
2006,09,16,08,20,8.30
2006,09,16,08,21,8.30
2006,09,16,08,22,8.30
2006,09,16,08,23,8.30
2006,09,16,08,24,8.40
2006,09,16,08,25,8.50
2006,09,16,08,26,8.50
2006,09,16,08,27,8.50
2006,09,16,08,28,8.60
2006,09,16,08,29,8.70
2006,09,16,08,30,8.70
2006,09,16,08,31,8.70
2006,09,16,08,32,8.80
2006,09,16,08,33,8.90
2006,09,16,08,34,9.00
2006,09,16,08,35,9.10
2006,09,16,08,36,9.20
2006,09,16,08,37,9.40
2006,09,16,08,38,9.50
2006,09,16,08,39,9.70
2006,09,16,08,40,9.80
2006,09,16,08,41,10.00
2006,09,16,08,42,10.10
2006,09,16,08,43,10.30
2006,09,16,08,44,10.50
2006,09,16,08,45,10.70
2006,09,16,08,46,10.90
2006,09,16,08,47,10.90
2006,09,16,08,48,11.20
2006,09,16,08,49,11.30
2006,09,16,08,50,11.50
2006,09,16,08,51,11.60
2006,09,16,08,52,11.80
2006,09,16,08,53,11.80
2006,09,16,08,54,11.90
2006,09,16,08,55,12.00
2006,09,16,08,56,12.10
2006,09,16,08,57,12.10
2006,09,16,08,58,12.20
2006,09,16,08,59,12.20
2006,09,16,09,00,12.20
2006,09,16,09,01,12.30
2006,09,16,09,02,12.30
2006,09,16,09,03,12.30
2006,09,16,09,04,12.30
2006,09,16,09,05,12.40
2006,09,16,09,06,12.40
2006,09,16,09,07,12.40
2006,09,16,09,08,12.40
2006,09,16,09,09,12.40
2006,09,16,09,10,12.40
2006,09,16,09,11,12.40
2006,09,16,09,12,12.30
2006,09,16,09,13,12.30
2006,09,16,09,14,12.30
2006,09,16,09,15,12.30
2006,09,16,09,16,12.30
2006,09,16,09,17,12.30
2006,09,16,09,18,12.30
2006,09,16,09,19,12.40
2006,09,16,09,20,12.40
2006,09,16,09,21,12.50
2006,09,16,09,22,12.50
2006,09,16,09,23,12.60
2006,09,16,09,24,12.60
2006,09,16,09,25,12.70
2006,09,16,09,26,12.70
2006,09,16,09,27,12.70
2006,09,16,09,28,12.70
2006,09,16,09,29,12.70
2006,09,16,09,30,12.70
2006,09,16,09,31,12.70
2006,09,16,09,32,12.70
2006,09,16,09,33,12.60
2006,09,16,09,34,12.60
2006,09,16,09,35,12.70
2006,09,16,09,36,12.70
2006,09,16,09,37,12.70
2006,09,16,09,38,12.70
2006,09,16,09,39,12.70
2006,09,16,09,40,12.70
2006,09,16,09,41,12.70
2006,09,16,09,42,12.70
2006,09,16,09,43,12.70
2006,09,16,09,44,12.70
2006,09,16,09,45,12.70
2006,09,16,09,46,12.70
2006,09,16,09,47,12.70
2006,09,16,09,48,12.70
2006,09,16,09,49,12.80
2006,09,16,09,50,12.80
2006,09,16,09,51,12.80
2006,09,16,09,52,12.80
2006,09,16,09,53,12.80
2006,09,16,09,54,12.80
2006,09,16,09,55,12.90
2006,09,16,09,56,12.90
2006,09,16,09,57,12.90
2006,09,16,09,58,12.90
2006,09,16,09,59,13.00
2006,09,16,10,00,13.10
2006,09,16,10,01,13.10
2006,09,16,10,02,13.20
2006,09,16,10,03,13.30
2006,09,16,10,04,13.30
2006,09,16,10,05,13.30
2006,09,16,10,06,13.40
2006,09,16,10,07,13.50
2006,09,16,10,08,13.50
2006,09,16,10,09,13.50
2006,09,16,10,10,13.50
2006,09,16,10,11,13.50
2006,09,16,10,12,13.50
2006,09,16,10,13,13.60
2006,09,16,10,14,13.70
2006,09,16,10,15,13.70
2006,09,16,10,16,13.80
2006,09,16,10,17,13.80
2006,09,16,10,18,13.80
2006,09,16,10,19,13.90
2006,09,16,10,20,14.00
2006,09,16,10,21,14.20
2006,09,16,10,22,14.30
2006,09,16,10,23,14.50
2006,09,16,10,24,14.60
2006,09,16,10,25,14.70
2006,09,16,10,26,14.80
2006,09,16,10,27,14.80
2006,09,16,10,28,14.70
2006,09,16,10,29,14.70
2006,09,16,10,30,14.80
2006,09,16,10,31,14.80
2006,09,16,10,32,14.80
2006,09,16,10,33,14.80
2006,09,16,10,34,14.80
2006,09,16,10,35,14.90
2006,09,16,10,36,14.70
2006,09,16,10,37,14.50
2006,09,16,10,38,14.30
2006,09,16,10,39,14.10
2006,09,16,10,40,14.00
2006,09,16,10,41,13.90
2006,09,16,10,42,13.90
2006,09,16,10,43,13.80
2006,09,16,10,44,13.90
2006,09,16,10,45,13.90
2006,09,16,10,46,14.00
2006,09,16,10,47,14.00
2006,09,16,10,48,14.10
2006,09,16,10,49,14.20
2006,09,16,10,50,14.20
2006,09,16,10,51,14.30
2006,09,16,10,52,14.40
2006,09,16,10,53,14.50
2006,09,16,10,54,14.40
2006,09,16,10,55,14.40
2006,09,16,10,56,14.20
2006,09,16,10,57,14.20
2006,09,16,10,58,14.00
2006,09,16,10,59,14.00
2006,09,16,11,00,13.90
2006,09,16,11,01,13.80
2006,09,16,11,02,13.80
2006,09,16,11,03,13.70
2006,09,16,11,04,13.80
2006,09,16,11,05,13.90
2006,09,16,11,06,14.00
2006,09,16,11,07,14.00
2006,09,16,11,08,14.00
2006,09,16,11,09,14.00
2006,09,16,11,10,14.00
2006,09,16,11,11,13.90
2006,09,16,11,12,13.70
2006,09,16,11,13,13.70
2006,09,16,11,14,13.60
2006,09,16,11,15,13.70
2006,09,16,11,16,13.70
2006,09,16,11,17,13.70
2006,09,16,11,18,13.80
2006,09,16,11,19,13.90
2006,09,16,11,20,13.90
2006,09,16,11,21,13.80
2006,09,16,11,22,13.80
2006,09,16,11,23,13.80
2006,09,16,11,24,13.80
2006,09,16,11,25,13.80
2006,09,16,11,26,13.90
2006,09,16,11,27,13.90
2006,09,16,11,28,14.10
2006,09,16,11,29,14.30
2006,09,16,11,30,14.60
2006,09,16,11,31,14.80
2006,09,16,11,32,14.90
2006,09,16,11,33,14.80
2006,09,16,11,34,14.90
2006,09,16,11,35,15.00
2006,09,16,11,36,14.90
2006,09,16,11,37,14.90
2006,09,16,11,38,14.90
2006,09,16,11,39,15.00
2006,09,16,11,40,15.00
2006,09,16,11,41,15.00
2006,09,16,11,42,14.90
2006,09,16,11,43,14.80
2006,09,16,11,44,14.60
2006,09,16,11,45,14.60
2006,09,16,11,46,14.60
2006,09,16,11,47,14.60
2006,09,16,11,48,14.80
2006,09,16,11,49,15.00
2006,09,16,11,50,15.10
2006,09,16,11,51,15.20
2006,09,16,11,52,15.30
2006,09,16,11,53,15.30
2006,09,16,11,54,15.20
2006,09,16,11,55,15.00
2006,09,16,11,56,14.90
2006,09,16,11,57,15.00
2006,09,16,11,58,15.10
2006,09,16,11,59,15.20
2006,09,16,12,00,15.30
2006,09,16,12,01,15.50
2006,09,16,12,02,15.50
2006,09,16,12,03,15.30
2006,09,16,12,04,15.30
2006,09,16,12,05,15.30
2006,09,16,12,06,15.40
2006,09,16,12,07,15.40
2006,09,16,12,08,15.50
2006,09,16,12,09,15.40
2006,09,16,12,10,15.30
2006,09,16,12,11,15.30
2006,09,16,12,12,15.30
2006,09,16,12,13,15.30
2006,09,16,12,14,15.30
2006,09,16,12,15,15.30
2006,09,16,12,16,15.30
2006,09,16,12,17,15.30
2006,09,16,12,18,15.30
2006,09,16,12,19,15.20
2006,09,16,12,20,15.20
2006,09,16,12,21,15.20
2006,09,16,12,22,15.00
2006,09,16,12,23,14.80
2006,09,16,12,24,14.70
2006,09,16,12,25,14.70
2006,09,16,12,26,14.60
2006,09,16,12,27,14.60
2006,09,16,12,28,14.80
2006,09,16,12,29,14.80
2006,09,16,12,30,14.80
2006,09,16,12,31,14.90
2006,09,16,12,32,14.90
2006,09,16,12,33,14.80
2006,09,16,12,34,14.80
2006,09,16,12,35,15.00
2006,09,16,12,36,15.10
2006,09,16,12,37,15.30
2006,09,16,12,38,15.30
2006,09,16,12,39,15.20
2006,09,16,12,40,15.10
2006,09,16,12,41,15.00
2006,09,16,12,42,15.00
2006,09,16,12,43,15.00
2006,09,16,12,44,15.00
2006,09,16,12,45,15.10
2006,09,16,12,46,15.10
2006,09,16,12,47,15.20
2006,09,16,12,48,15.20
2006,09,16,12,49,15.30
2006,09,16,12,50,15.30
2006,09,16,12,51,15.20
2006,09,16,12,52,15.30
2006,09,16,12,53,15.30
2006,09,16,12,54,15.40
2006,09,16,12,55,15.30
2006,09,16,12,56,15.20
2006,09,16,12,57,15.00
2006,09,16,12,58,15.00
2006,09,16,12,59,15.20
2006,09,16,13,00,15.20
2006,09,16,13,01,15.20
2006,09,16,13,02,15.10
2006,09,16,13,03,15.00
2006,09,16,13,04,14.90
2006,09,16,13,05,14.80
2006,09,16,13,06,14.70
2006,09,16,13,07,14.70
2006,09,16,13,08,14.70
2006,09,16,13,09,14.60
2006,09,16,13,10,14.50
2006,09,16,13,11,14.30
2006,09,16,13,12,14.20
2006,09,16,13,13,14.30
2006,09,16,13,14,14.20
2006,09,16,13,15,14.10
2006,09,16,13,16,14.10
2006,09,16,13,17,14.00
2006,09,16,13,18,14.00
2006,09,16,13,19,13.90
2006,09,16,13,20,13.90
2006,09,16,13,21,14.00
2006,09,16,13,22,14.00
2006,09,16,13,23,13.80
2006,09,16,13,24,13.80
2006,09,16,13,25,13.80
2006,09,16,13,26,13.80
2006,09,16,13,27,13.70
2006,09,16,13,28,13.70
2006,09,16,13,29,13.70
2006,09,16,13,30,13.80
2006,09,16,13,31,13.90
2006,09,16,13,32,13.90
2006,09,16,13,33,13.90
2006,09,16,13,34,13.90
2006,09,16,13,35,14.00
2006,09,16,13,36,14.00
2006,09,16,13,37,13.90
2006,09,16,13,38,13.90
2006,09,16,13,39,13.90
2006,09,16,13,40,13.90
2006,09,16,13,41,14.00
2006,09,16,13,42,14.10
2006,09,16,13,43,14.10
2006,09,16,13,44,14.20
2006,09,16,13,45,14.20
2006,09,16,13,46,14.20
2006,09,16,13,47,14.40
2006,09,16,13,48,14.60
2006,09,16,13,49,14.70
2006,09,16,13,50,14.80
2006,09,16,13,51,14.80
2006,09,16,13,52,14.90
2006,09,16,13,53,15.00
2006,09,16,13,54,15.00
2006,09,16,13,55,14.80
2006,09,16,13,56,14.60
2006,09,16,13,57,14.50
2006,09,16,13,58,14.50
2006,09,16,13,59,14.40
2006,09,16,14,00,14.20
2006,09,16,14,01,14.20
2006,09,16,14,02,14.20
2006,09,16,14,03,14.20
2006,09,16,14,04,14.20
2006,09,16,14,05,14.30
2006,09,16,14,06,14.40
2006,09,16,14,07,14.50
2006,09,16,14,08,14.60
2006,09,16,14,09,14.70
2006,09,16,14,10,14.70
2006,09,16,14,11,14.80
2006,09,16,14,12,14.80
2006,09,16,14,13,14.80
2006,09,16,14,14,14.80
2006,09,16,14,15,14.80
2006,09,16,14,16,14.80
2006,09,16,14,17,14.80
2006,09,16,14,18,14.70
2006,09,16,14,19,14.70
2006,09,16,14,20,14.80
2006,09,16,14,21,14.80
2006,09,16,14,22,14.90
2006,09,16,14,23,14.90
2006,09,16,14,24,15.00
2006,09,16,14,25,15.00
2006,09,16,14,26,14.80
2006,09,16,14,27,14.90
2006,09,16,14,28,14.90
2006,09,16,14,29,14.80
2006,09,16,14,30,14.70
2006,09,16,14,31,14.60
2006,09,16,14,32,14.60
2006,09,16,14,33,14.60
2006,09,16,14,34,14.60
2006,09,16,14,35,14.60
2006,09,16,14,36,14.60
2006,09,16,14,37,14.70
2006,09,16,14,38,14.80
2006,09,16,14,39,14.80
2006,09,16,14,40,15.00
2006,09,16,14,41,15.10
2006,09,16,14,42,15.30
2006,09,16,14,43,15.50
2006,09,16,14,44,15.50
2006,09,16,14,45,15.30
2006,09,16,14,46,15.40
2006,09,16,14,47,15.40
2006,09,16,14,48,15.30
2006,09,16,14,49,15.30
2006,09,16,14,50,15.30
2006,09,16,14,51,15.20
2006,09,16,14,52,15.20
2006,09,16,14,53,15.10
2006,09,16,14,54,15.00
2006,09,16,14,55,14.80
2006,09,16,14,56,14.80
2006,09,16,14,57,14.90
2006,09,16,14,58,15.00
2006,09,16,14,59,15.10
2006,09,16,15,00,15.30
2006,09,16,15,01,15.30
2006,09,16,15,02,15.30
2006,09,16,15,03,15.30
2006,09,16,15,04,15.30
2006,09,16,15,05,15.20
2006,09,16,15,06,15.10
2006,09,16,15,07,15.00
2006,09,16,15,08,14.90
2006,09,16,15,09,14.90
2006,09,16,15,10,14.80
2006,09,16,15,11,14.80
2006,09,16,15,12,14.80
2006,09,16,15,13,14.80
2006,09,16,15,14,14.80
2006,09,16,15,15,14.90
2006,09,16,15,16,15.10
2006,09,16,15,17,15.10
2006,09,16,15,18,15.10
2006,09,16,15,19,14.90
2006,09,16,15,20,14.90
2006,09,16,15,21,14.90
2006,09,16,15,22,14.90
2006,09,16,15,23,14.90
2006,09,16,15,24,14.90
2006,09,16,15,25,14.90
2006,09,16,15,26,14.90
2006,09,16,15,27,14.80
2006,09,16,15,28,14.80
2006,09,16,15,29,14.80
2006,09,16,15,30,14.80
2006,09,16,15,31,14.70
2006,09,16,15,32,14.70
2006,09,16,15,33,14.60
2006,09,16,15,34,14.70
2006,09,16,15,35,14.80
2006,09,16,15,36,15.00
2006,09,16,15,37,15.10
2006,09,16,15,38,15.20
2006,09,16,15,39,15.30
2006,09,16,15,40,15.50
2006,09,16,15,41,15.60
2006,09,16,15,42,15.50
2006,09,16,15,43,15.50
2006,09,16,15,44,15.50
2006,09,16,15,45,15.60
2006,09,16,15,46,15.70
2006,09,16,15,47,15.80
2006,09,16,15,48,15.80
2006,09,16,15,49,15.80
2006,09,16,15,50,15.80
2006,09,16,15,51,15.90
2006,09,16,15,52,16.00
2006,09,16,15,53,16.10
2006,09,16,15,54,16.10
2006,09,16,15,55,16.10
2006,09,16,15,56,16.10
2006,09,16,15,57,16.10
2006,09,16,15,58,16.10
2006,09,16,15,59,16.10
2006,09,16,16,00,16.10
2006,09,16,16,01,16.10
2006,09,16,16,02,16.10
2006,09,16,16,03,16.10
2006,09,16,16,04,16.10
2006,09,16,16,05,16.10
2006,09,16,16,06,16.10
2006,09,16,16,07,16.10
2006,09,16,16,08,16.10
2006,09,16,16,09,16.10
2006,09,16,16,10,16.20
2006,09,16,16,11,16.20
2006,09,16,16,12,16.30
2006,09,16,16,13,16.30
2006,09,16,16,14,16.20
2006,09,16,16,15,16.10
2006,09,16,16,16,16.10
2006,09,16,16,17,16.10
2006,09,16,16,18,16.00
2006,09,16,16,19,15.70
2006,09,16,16,20,15.70
2006,09,16,16,21,15.70
2006,09,16,16,22,15.70
2006,09,16,16,23,15.70
2006,09,16,16,24,15.80
2006,09,16,16,25,15.80
2006,09,16,16,26,15.80
2006,09,16,16,27,16.00
2006,09,16,16,28,16.10
2006,09,16,16,29,16.10
2006,09,16,16,30,16.10
2006,09,16,16,31,16.10
2006,09,16,16,32,16.10
2006,09,16,16,33,16.10
2006,09,16,16,34,16.10
2006,09,16,16,35,16.10
2006,09,16,16,36,16.10
2006,09,16,16,37,16.10
2006,09,16,16,38,16.10
2006,09,16,16,39,16.10
2006,09,16,16,40,16.10
2006,09,16,16,41,16.20
2006,09,16,16,42,16.20
2006,09,16,16,43,16.20
2006,09,16,16,44,16.10
2006,09,16,16,45,15.90
2006,09,16,16,46,15.80
2006,09,16,16,47,15.70
2006,09,16,16,48,15.70
2006,09,16,16,49,15.80
2006,09,16,16,50,15.80
2006,09,16,16,51,15.80
2006,09,16,16,52,15.90
2006,09,16,16,53,15.90
2006,09,16,16,54,15.90
2006,09,16,16,55,15.90
2006,09,16,16,56,15.80
2006,09,16,16,57,15.80
2006,09,16,16,58,15.90
2006,09,16,16,59,15.90
2006,09,16,17,00,15.90
2006,09,16,17,01,16.10
2006,09,16,17,02,16.10
2006,09,16,17,03,16.20
2006,09,16,17,04,16.20
2006,09,16,17,05,16.20
2006,09,16,17,06,16.20
2006,09,16,17,07,16.20
2006,09,16,17,08,16.20
2006,09,16,17,09,16.20
2006,09,16,17,10,16.10
2006,09,16,17,11,16.10
2006,09,16,17,12,16.10
2006,09,16,17,13,16.20
2006,09,16,17,14,16.20
2006,09,16,17,15,16.20
2006,09,16,17,16,16.20
2006,09,16,17,17,16.20
2006,09,16,17,18,16.30
2006,09,16,17,19,16.20
2006,09,16,17,20,16.30
2006,09,16,17,21,16.30
2006,09,16,17,22,16.20
2006,09,16,17,23,16.20
2006,09,16,17,24,16.10
2006,09,16,17,25,16.10
2006,09,16,17,26,15.90
2006,09,16,17,27,15.90
2006,09,16,17,28,16.00
2006,09,16,17,29,16.10
2006,09,16,17,30,16.10
2006,09,16,17,31,16.10
2006,09,16,17,32,16.10
2006,09,16,17,33,16.20
2006,09,16,17,34,16.20
2006,09,16,17,35,16.20
2006,09,16,17,36,16.20
2006,09,16,17,37,16.10
2006,09,16,17,38,16.10
2006,09,16,17,39,16.10
2006,09,16,17,40,16.10
2006,09,16,17,41,15.90
2006,09,16,17,42,15.80